Time,TemperatureF,DewpointF,PressureIn,WindDirection,WindDirectionDegrees,WindSpeedMPH,WindSpeedGustMPH,Humidity,HourlyPrecipIn,Conditions,Clouds,dailyrainin,SoftwareType,DateUTC
2013-11-09 00:00:00,77.7,76.5,29.87,WSW,243,1.0,4.0,96,0.06,,,0.00,VWS V14.01,2013-11-09 06:00:00,
2013-11-09 00:30:00,77.0,76.1,29.86,WSW,248,1.0,5.0,97,0.06,,,0.00,VWS V14.01,2013-11-09 06:30:00,
2013-11-09 01:00:00,76.7,75.8,29.84,West,270,1.0,3.0,97,0.06,,,0.00,VWS V14.01,2013-11-09 07:00:00,
2013-11-09 01:30:00,76.7,75.8,29.84,West,270,1.0,3.0,97,0.00,,,0.00,VWS V14.01,2013-11-09 07:30:00,
2013-11-09 02:00:00,77.0,75.8,29.83,West,270,1.0,5.0,96,0.00,,,0.00,VWS V14.01,2013-11-09 08:00:00,
2013-11-09 02:30:00,76.5,75.3,29.83,WNW,292,2.0,11.0,96,0.27,,,0.27,VWS V14.01,2013-11-09 08:30:00,
2013-11-09 03:00:00,76.5,75.3,29.83,West,270,1.0,6.0,96,0.29,,,0.29,VWS V14.01,2013-11-09 09:00:00,
2013-11-09 03:30:00,76.0,74.8,29.84,West,270,1.0,4.0,96,0.29,,,0.29,VWS V14.01,2013-11-09 09:30:00,
2013-11-09 04:00:00,76.0,75.1,29.86,NNW,338,0.0,3.0,97,0.13,,,0.40,VWS V14.01,2013-11-09 10:00:00,
2013-11-09 04:30:00,76.8,75.9,29.85,SSW,202,0.0,3.0,97,0.14,,,0.43,VWS V14.01,2013-11-09 10:30:00,
2013-11-09 05:00:00,76.7,75.5,29.86,SSW,202,0.0,3.0,96,0.17,,,0.46,VWS V14.01,2013-11-09 11:00:00,
2013-11-09 05:30:00,76.1,74.9,29.86,West,270,1.0,4.0,96,0.06,,,0.46,VWS V14.01,2013-11-09 11:30:00,
2013-11-09 06:00:00,76.2,75.0,29.87,WSW,248,1.0,3.0,96,0.03,,,0.46,VWS V14.01,2013-11-09 12:00:00,
2013-11-09 06:30:00,77.5,76.3,29.88,WSW,248,1.0,3.0,96,0.00,,,0.46,VWS V14.01,2013-11-09 12:30:00,
2013-11-09 07:00:00,80.0,77.5,29.89,WSW,248,1.0,4.0,92,0.00,,,0.46,VWS V14.01,2013-11-09 13:00:00,
2013-11-09 07:30:00,81.0,77.5,29.90,WSW,248,3.0,6.0,89,0.00,,,0.46,VWS V14.01,2013-11-09 13:30:00,
2013-11-09 08:00:00,81.4,77.8,29.92,WSW,248,5.0,11.0,89,0.00,,,0.46,VWS V14.01,2013-11-09 14:00:00,
2013-11-09 08:30:00,81.2,77.7,29.93,WSW,248,4.0,11.0,89,0.00,,,0.46,VWS V14.01,2013-11-09 14:30:00,
2013-11-09 09:00:00,81.5,77.6,29.93,WSW,248,6.0,12.0,88,0.00,,,0.46,VWS V14.01,2013-11-09 15:00:00,
2013-11-09 09:30:00,82.4,77.8,29.93,SSW,202,8.0,13.0,86,0.00,,,0.46,VWS V14.01,2013-11-09 15:30:00,
2013-11-09 10:00:00,82.5,77.9,29.92,SSW,202,9.0,13.0,86,0.00,,,0.46,VWS V14.01,2013-11-09 16:00:00,
2013-11-09 10:30:00,82.3,78.1,29.91,SSW,202,8.0,13.0,87,0.00,,,0.46,VWS V14.01,2013-11-09 16:30:00,
2013-11-09 11:00:00,82.4,78.1,29.91,SSW,202,3.0,11.0,87,0.00,,,0.46,VWS V14.01,2013-11-09 17:00:00,
2013-11-09 11:30:00,83.2,78.2,29.90,WSW,248,2.0,10.0,85,0.00,,,0.46,VWS V14.01,2013-11-09 17:30:00,
2013-11-09 12:00:00,82.5,77.5,29.89,West,270,2.0,8.0,85,0.00,,,0.46,VWS V14.01,2013-11-09 18:00:00,
2013-11-09 12:30:00,83.2,77.5,29.88,West,270,3.0,10.0,83,0.00,,,0.46,VWS V14.01,2013-11-09 18:30:00,
2013-11-09 13:00:00,83.6,77.9,29.86,WNW,292,2.0,7.0,83,0.00,,,0.46,VWS V14.01,2013-11-09 19:00:00,
2013-11-09 13:30:00,82.6,77.6,29.85,WNW,292,2.0,10.0,85,0.00,,,0.46,VWS V14.01,2013-11-09 19:30:00,
2013-11-09 14:00:00,83.5,77.8,29.84,NW,315,2.0,7.0,83,0.00,,,0.46,VWS V14.01,2013-11-09 20:00:00,
2013-11-09 14:30:00,84.2,78.1,29.84,WNW,292,2.0,6.0,82,0.00,,,0.46,VWS V14.01,2013-11-09 20:30:00,
2013-11-09 15:00:00,83.7,77.6,29.84,WNW,292,2.0,6.0,82,0.00,,,0.46,VWS V14.01,2013-11-09 21:00:00,
2013-11-09 15:30:00,84.5,78.0,29.84,WNW,292,1.0,6.0,81,0.00,,,0.46,VWS V14.01,2013-11-09 21:30:00,
2013-11-09 16:00:00,83.4,77.0,29.86,WNW,292,1.0,4.0,81,0.00,,,0.46,VWS V14.01,2013-11-09 22:00:00,
2013-11-09 16:30:00,84.7,77.5,29.86,WNW,292,0.0,2.0,79,0.00,,,0.46,VWS V14.01,2013-11-09 22:30:00,
2013-11-09 17:00:00,83.2,77.1,29.87,NW,315,0.0,3.0,82,0.00,,,0.46,VWS V14.01,2013-11-09 23:00:00,
2013-11-09 17:30:00,81.0,77.5,29.87,WNW,292,0.0,1.0,89,0.00,,,0.46,VWS V14.01,2013-11-09 23:30:00,
2013-11-09 18:00:00,80.2,77.7,29.88,North,0,0.0,1.0,92,0.01,,,0.47,VWS V14.01,2013-11-10 00:00:00,
2013-11-09 18:30:00,78.8,76.9,29.89,NNE,22,0.0,5.0,94,0.02,,,0.48,VWS V14.01,2013-11-10 00:30:00,
2013-11-09 19:00:00,78.7,76.8,29.90,NNW,338,0.0,4.0,94,0.02,,,0.48,VWS V14.01,2013-11-10 01:00:00,
2013-11-09 19:30:00,78.4,76.5,29.91,NW,315,0.0,3.0,94,0.01,,,0.48,VWS V14.01,2013-11-10 01:30:00,
2013-11-09 20:00:00,78.7,76.8,29.92,ENE,68,1.0,7.0,94,0.01,,,0.49,VWS V14.01,2013-11-10 02:00:00,
2013-11-09 20:30:00,79.2,77.3,29.92,ENE,68,1.0,8.0,94,0.01,,,0.49,VWS V14.01,2013-11-10 02:30:00,
2013-11-09 21:00:00,80.1,76.9,29.93,ESE,112,4.0,9.0,90,0.01,,,0.49,VWS V14.01,2013-11-10 03:00:00,
2013-11-09 21:30:00,78.5,76.6,29.93,NNW,338,1.0,5.0,94,0.01,,,0.50,VWS V14.01,2013-11-10 03:30:00,
2013-11-09 22:00:00,77.5,76.0,29.93,NNE,22,1.0,7.0,95,0.02,,,0.51,VWS V14.01,2013-11-10 04:00:00,
2013-11-09 22:30:00,77.8,76.3,29.92,NNE,22,0.0,4.0,95,0.02,,,0.51,VWS V14.01,2013-11-10 04:30:00,
2013-11-09 23:00:00,78.2,76.7,29.92,NNW,338,0.0,4.0,95,0.01,,,0.51,VWS V14.01,2013-11-10 05:00:00,
2013-11-09 23:30:00,77.4,76.2,29.91,NNW,338,0.0,2.0,96,0.00,,,0.51,VWS V14.01,2013-11-10 05:30:00,